Weather in Shokurovo

Russia / Sverdlovsk Oblast     56°19′28″N   59°06′48″E
temp.,
°C
wind,
m/s
gust,
m/s
humid.,
%
clouds,
%
prec.,
mm/h
press.,
hPa
HPBL,
m
20 april, tue
tue2023:00−2se11500 0.0 103410
02:00−3ssw11540 0.0 103510
05:00−3w11545 0.0 103610
08:000w23425 0.0 1035295
11:00+4wnw33345 0.0 10341222
14:00+6wnw44335 0.0 10321497
17:00+7nw45330 0.0 10311449
20:00+3nw22520 0.0 103134
21 april, wed
wed2123:00+1wnw11600 0.0 103210
02:000wnw11640 0.0 103210
05:00−1w11682 0.0 103310
08:00+3w12560 0.0 1033189
11:00+7nw22420 0.0 1032840
14:00+11e11360 0.0 10311101
17:00+11sse223412 0.0 10311277
20:00+8se225030 0.0 103117
22 april, thu
thu2223:00+5ese225860 0.0 103219
02:00+3ese226673 0.0 103231
05:00+2sse2267100 0.0 103316
08:00+5se2361100 0.0 103398
11:00+9sse3544100 0.0 1032600
14:00+11s4735100 0.0 10321251
17:00+11s4635100 0.0 10311423
20:00+8sse245540 0.0 103178
23 april, fri
fri2323:00+5s236385 0.0 103249
02:00+4sw1168100 0.0 103210
05:00+4sse2175100 0.0 103224
08:00+4sse4987100 0.8 1031676
11:00+5s3690100 0.9 1031686
14:00+5s3691100 0.4 1031736
17:00+8wsw2470100 0.5 1030822
20:00+6ene2287100 0.2 103055
24 april, sat
sat2423:00+6e2487100 0.2 102898
02:00+5ese2289100 0.0 102735
05:00+5se2495100 0.6 1026110
08:00+5ese2796100 0.8 1025349
11:00+6sse3789100 1.4 1023877
14:00+8se5979100 0.4 1022985
17:00+6se5987100 0.9 10211025
20:00+6ese4793100 0.6 1020931